Flag for Germany Weather past 2 weeks in Soltau, Lower Saxony, Germany

Now
34 °F

Partly cloudy.


Feels Like: 30 °F
Forecast: 31 / 44 °F
Wind: 5 mph from West

Location: Fassberg

Current Time: Feb 27, 2015 at 10:58:19 PM

Latest Report: Feb 27, 2015 at 10:20 PM


Visibility: N/A

Pressure: 30.07 "Hg

Humidity: 93%

Dew point: 32 °F

Location of SoltauLocation

Historic Weather in Soltau — Graph

°F

Soltau temperature yesterday

Maximum temperature yesterday: 48 °F (at 1:20 PM)
Minimum temperature yesterday: 32 °F (at 4:20 AM)
Average temperature yesterday: 40 °F

Past Weeks' High & Low Weather Summary

 TemperatureHumidityPressure
High50 °F (Feb 14, 1:20 PM)100% (Feb 13, 10:20 PM)30.72 "Hg (Feb 13, 10:20 PM)
Low23 °F (Feb 17, 5:20 AM)49% (Feb 18, 5:00 PM)29.27 "Hg (Feb 21, 10:20 AM)
Average36 °F83%29.97 "Hg
* Reported Feb 12 9:20 PM — Feb 27 9:20 PM, Soltau, Weather by CustomWeather, © 2015

Note: Actual official high and low records may vary slightly from our data, if they occured in-between our weather recording intervals... More about our weather records

Advertising

Soltau weather history for previous 24 hours

 ConditionsComfort  
Time TempWeatherWind HumidityBarometerVisibility
9:20 PM
Fri, Feb 27
34 °FPassing clouds.5 mph93%30.04 "HgN/A
8:20 PM36 °FPartly cloudy.7 mph87%30.01 "HgN/A
7:20 PM39 °FPartly cloudy.9 mph87%30.01 "HgN/A
6:20 PM41 °FPartly cloudy.9 mph81%29.98 "HgN/A
5:20 PM41 °FPartly sunny.7 mph87%29.95 "Hg5 mi
4:20 PM41 °FLight rain. Overcast.9 mph87%29.92 "Hg4 mi
3:20 PM41 °FLight rain. More clouds than sun.10 mph87%29.92 "Hg5 mi
2:20 PM41 °FLight rain. Broken clouds.3 mph93%29.89 "Hg4 mi
1:20 PM39 °FLight rain. Broken clouds.5 mph93%29.89 "Hg4 mi
12:20 PM39 °FDrizzle. Fog.2 mph93%29.89 "Hg3 mi
12:00 PM39 °FDrizzle. Fog.3 mph93%29.86 "Hg2 mi
11:50 AM39 °FDrizzle. Fog.3 mph87%29.86 "Hg2 mi
11:20 AM39 °FDrizzle. Partly sunny.2 mph87%29.86 "Hg3 mi
10:20 AM37 °FLight rain. Mostly cloudy.5 mph87%29.86 "Hg5 mi
9:50 AM37 °FRain. Partly sunny.3 mph87%29.83 "Hg5 mi
9:20 AM37 °FLight rain. Partly sunny.2 mph81%29.83 "Hg6 mi
8:20 AM37 °FLight rain. Partly sunny.2 mph75%29.83 "HgN/A
7:20 AM37 °FLight rain. Partly sunny.6 mph70%29.80 "HgN/A
6:20 AM39 °FPassing clouds.6 mph65%29.80 "HgN/A
5:20 AM39 °FPassing clouds.6 mph65%29.80 "HgN/A
4:20 AM39 °FPartly cloudy.6 mph65%29.80 "HgN/A
3:20 AM39 °FPartly cloudy.7 mph65%29.80 "HgN/A
2:20 AM39 °FPassing clouds.7 mph65%29.83 "HgN/A
1:20 AM39 °FPartly cloudy.7 mph65%29.83 "HgN/A
12:20 AM41 °FPassing clouds.8 mph61%29.86 "HgN/A
11:20 PM
Thu, Feb 26
41 °FPassing clouds.8 mph66%29.86 "HgN/A
10:20 PM39 °FPassing clouds.6 mph70%29.89 "HgN/A
Weather by CustomWeather, © 2015

See weather overviewHow to use our weather pages